Regional Weather Roundup
Issued by NWS Kansas City/Pleasant Hill, MO

Home | Current Version | Previous Version | Text Only | Print | Product List | Glossary On
Versions: 1 2 3 4 5 6 7 8 9 10 11 12 13 14 15 16 17 18 19 20 21 22 23 24 25 26 27 28 29 30 31 32 33 34 35 36 37 38 39 40 41 42 43 44 45 46 47 48 49 50
000
ASUS43 KEAX 221011
RWREAX

WEATHER ROUNDUP FOR EASTERN KANSAS AND NORTHWEST MISSOURI
NATIONAL WEATHER SERVICE KANSAS CITY/PLEASANT HILL MO
500 AM CDT TUE JUL 22 2014

KSZ040-057-103>105-MOZ028-029-037-043-221100-
...KANSAS CITY METROPOLITAN AREA...

CITY           SKY/WX    TMP DP  RH WIND       PRES   REMARKS
K.C. INTL      CLEAR     77  73  87 S13       29.99S
K.C. DOWNTOWN  CLEAR     79  73  82 S9        29.99R
LEES SUMMIT    CLEAR     76  72  87 S8        30.02R
OLATHE - IXD   CLEAR     74  73  97 S6        30.02R FOG
OLATHE - OJC   CLEAR     74  72  93 S7        30.01R
LAWRENCE       CLEAR     78  74  87 S7        29.99R

$$

MOZ001>008-011>017-020>025-030>033-038>040-044>046-053-054-221100-
...NORTHERN AND CENTRAL MISSOURI...

CITY           SKY/WX    TMP DP  RH WIND       PRES   REMARKS
ST. JOSEPH     CLEAR     78  74  87 S8        29.96S
MOSBY          SUNNY     73  73 100 SE5       29.99S
WHITEMAN AFB   PTCLDY    71  60  67 S7        30.03R
CLINTON        CLEAR     73  70  88 S6        30.04S
SEDALIA        CLEAR     72  66  81 S8        30.04F
WARSAW         NOT AVBL
MARSHALL       CLEAR     73  70  88 SE5       30.04R
CHILLICOTHE      N/A     76  72  87 S5        30.02R
MOBERLY        CLEAR     73  64  73 S9        30.05R
KIRKSVILLE     CLEAR     73  68  84 S8        30.04R

$$

MOZ041-047>049-056>058-063>065-088>090-097-221100-
...EASTERN AND SOUTHERN MISSOURI...

CITY           SKY/WX    TMP DP  RH WIND       PRES   REMARKS
ST. LOUIS INTL CLEAR     75  65  70 SW6       30.08S
SPIRIT OF STL  CLEAR     67  64  90 CALM      30.07R
COLUMBIA       CLEAR     70  67  90 S7        30.06R
JEFFERSON CITY CLEAR     72  66  81 E3        30.06R
MEXICO         CLEAR    N/A N/A N/A S7        30.06R
HANNIBAL       CLEAR     72  64  78 S9        30.05R
ROLLA          CLEAR     69  63  81 S10       30.08R
LEBANON        CLEAR     70  66  88 CALM      30.10R
OSAGE BEACH    CLEAR     70  64  83 SE3       30.07R
SPRINGFIELD    CLEAR     70  66  87 S6        30.08S
BRANSON        PTCLDY    66  66 100 CALM      30.11R
NEVADA         PTCLDY    70  70 100 S6        30.06R FOG
JOPLIN         CLEAR     73  68  84 S9        30.06R
WEST PLAINS    CLEAR     64  61  90 CALM      30.12S
MALDEN         CLEAR     68  64  88 CALM      30.09R FOG

$$

IAZ060-094-KSZ022-034>040-054-083-096-NEZ052-066-093-221100-
...KANSAS...SOUTHEAST NEBRASKA AND IOWA...

CITY           SKY/WX    TMP DP  RH WIND       PRES   REMARKS
TOPEKA         CLEAR     80  75  84 S7        29.98R
MANHATTAN      CLEAR     77  74  90 SW5       29.97S
EMPORIA        MOCLDY    74  73  97 S9        30.01R FOG
CHANUTE        PTCLDY    75  71  87 S9        30.03R
WICHITA        MOCLDY    76  73  91 S7        30.03R
OMAHA          CLOUDY    87  69  54 S7        29.90R HX  91
LINCOLN        PTCLDY    80  68  66 CALM      29.94R
FALLS CITY     PTCLDY    78  74  87 S6        29.93F
LAMONI         MOCLDY    77  74  90 S14       29.96S
DES MOINES     CLOUDY    81  74  79 S12       29.91R

$$



USA.gov is the U.S. government's official web portal to all federal, state and local government web resources and services.